Location: Newark
(48.6461°N, 4.3644°W)
Time: 00:35:37
(UTC+00:00)

Courier 1B Rocket - Pass Details

Date: 07 February 2020
Orbit: 920 x 1202 km, 28.2° (Epoch: 16 February)

Event Time Altitude Azimuth Distance (km) Brightness Sun altitude
Rises 06:59:41 0° 218° (SW) 4,036 8.0 -7.0°
Reaches altitude 10° 07:04:20 10° 194° (SSW) 3,108 7.7 -6.3°
Maximum altitude 07:07:40 13° 168° (SSE) 2,877 7.9 -5.7°
Drops below altitude 10° 07:11:02 10° 142° (SE) 3,129 8.6 -5.2°
Sets 07:15:43 0° 118° (ESE) 4,085 10.6 -4.5°
